Regional Weather Roundup
Issued by NWS Wakefield, VA

Home | Current Version | Previous Version | Text Only | Print | Product List | Glossary On
Versions: 1 2 3 4 5 6 7 8 9 10 11 12 13 14 15 16 17 18 19 20 21 22 23 24 25 26 27 28 29 30 31 32 33 34 35 36 37 38 39 40 41 42 43 44 45 46 47 48 49 50
000
ASUS41 KAKQ 040315
RWRAKQ

REGIONAL WEATHER ROUNDUP
NATIONAL WEATHER SERVICE WAKEFIELD VA
1100 PM EDT MON AUG 03 2015

Note: "fair" indicates few or no clouds below 12,000 feet with no
significant weather and/or obstructions to visibility. * = Denotes
station may not report precipitation (e.g., rain,snow,etc.),
thunder or fog.

VAZ042-051-052>054-056-040400-
NORTHERN VIRGINIA

CITY           SKY/WX    TMP DP  RH WIND       PRES   REMARKS
WASH NATIONAL  PTCLDY    84  69  60 S10       29.84S
DULLES         PTCLDY    78  63  59 S8        29.83F
FORT BELVOIR   CLEAR     73  69  89 SE3       29.83F
QUANTICO       NOT AVBL
FREDERICKSBRG* CLEAR     81  69  67 SW7       29.84F
STAFFORD*      CLEAR     70  66  88 CALM      29.89S
WARRENTON      CLEAR     77  66  69 SW5       29.84F
CULPEPER*      CLEAR     73  64  75 SW3       29.86S
MANASSAS*      CLEAR     73  66  78 CALM      29.84S
LEESBURG*      PTCLDY    79  68  69 S10       29.84F
WINCHESTER     MOCLDY    79  64  61 SW6       29.84S
FRONT ROYAL*   FAIR      77  63  61 SW5       29.85R
LURAY*         FAIR      79  63  57 SW7       29.87S
$$

VAZ048-049-060>072-079>083-040400-
CENTRAL AND SOUTH CENTRAL VIRGINIA

CITY           SKY/WX    TMP DP  RH WIND       PRES   REMARKS
RICHMOND       PTCLDY    79  71  76 S8        29.88S
CHESTERFIELD*  FAIR      77  63  61 S7        29.90S
PETERSBURG*    CLEAR     77  76  95 S3        29.91S
HANOVER        CLEAR     76  69  79 VRB5      29.89F
TAPPAHANNOCK*  CLEAR     77  69  76 S3        29.88F
QUINTON*       FAIR      78  72  80 S3        29.88F
CHARLOTTSVILLE CLEAR     75  64  68 S5        29.88S
GORDONSVILLE*  FAIR      68  66  94 CALM      29.86F
ORANGE*        CLEAR     72  66  83 CALM      29.88F
LOUISA*        CLEAR     73  66  78 CALM      29.87S
BUMPASS*       FAIR      76  67  75 CALM      29.87F
FARMVILLE*     CLEAR     74  67  78 CALM      29.89R
CREWE*         FAIR     N/A N/A N/A CALM      29.90S
FORT PICKETT*  FAIR      74  70  85 S7        29.91S
CHASE CITY*    FAIR      76  75  96 CALM      29.92R
CLARKSVILLE*   FAIR      75  70  83 S6        29.91S
SOUTH HILL*    CLEAR     76  71  84 S7        29.97F
LAWRENCEVILLE* FAIR      79  72  78 CALM      29.91S
EMPORIA*       CLEAR     75  72  88 CALM      29.93S
$$

VAZ088>098-040400-
SOUTHEAST VIRGINIA

CITY           SKY/WX    TMP DP  RH WIND       PRES   REMARKS
NORFOLK        CLEAR     80  73  79 S13       29.92R
VIRGINIA BEACH CLEAR     81  73  76 S12       29.92R
NORFOLK NAVAL  CLEAR     80  74  81 S8        29.93R
WEST POINT*    CLEAR     82  73  72 S6        29.90S
SALUDA*        FAIR      80  74  83 S8        29.89S
NEWPORT NEWS   CLEAR     81  75  82 S9        29.91S
LANGLEY AFB    CLEAR     80  75  85 S10       29.90S
FORT EUSTIS    CLEAR     81  81 100 S8        29.89S
WILLIAMSBURG*  CLEAR     84  79  84 S8        29.91F HX  96
HR EXEC AP*    FAIR      79  73  83 S10       29.94S
FRANKLIN*      CLEAR     78  74  88 S7        29.93S
WAKEFIELD      CLEAR     79  73  82 S3        29.91S
$$

VAZ020-022-025-037-045-040400-
WEST CENTRAL AND SOUTHWEST VIRGINIA

CITY           SKY/WX    TMP DP  RH WIND       PRES   REMARKS
STAUNTON*      PTCLDY    74  62  66 SW6       29.93S
WAYNESBORO*    FAIR      73  60  63 SW6       29.93S
HOT SPRINGS VA PTCLDY    71  59  66 W14       30.07R
LYNCHBURG      CLEAR     70  63  78 CALM      29.94R
DANVILLE       CLEAR     73  68  84 CALM      29.92R
SOUTH BOSTON*  FAIR      75  72  89 CALM      29.91S
MARTINSVILLE   CLEAR     70  70 100 CALM      29.98R
ROANOKE        PTCLDY    78  60  53 W8        29.96R
BLACKSBURG     CLEAR     71  62  71 CALM      30.05R
DUBLIN*          N/A     70  61  72 SW6       30.03S
MARION*        PTCLDY    67  62  86 CALM      30.08S
HILLSVILLE*    CLEAR     73  60  61 SW5       30.05S
RICHLANDS*     FAIR      73  60  63 W5        30.06R
WISE*          MOCLDY    72  57  60 S6        30.07S
ABINGDON*      CLEAR     69  61  74 CALM      30.03S
$$

MDZ021>025-VAZ099-100-040400-
SOUTHERN MARYLAND AND THE DELMARVA PENINSULA

CITY           SKY/WX    TMP DP  RH WIND       PRES   REMARKS
PATUXENT RIVER PTCLDY    81  71  71 SW13      29.85F
BAY BRIDGE APT   N/A     81  70  69 S7        29.84S
LEONARDTOWN    CLEAR     79  70  73 CALM      29.87F
DOVER          CLEAR     79  74  85 S7        29.83S
GEORGETOWN     CLEAR     77  70  79 S9        29.87S
EASTON         CLEAR     82  75  79 SW8       29.88F
CAMBRIDGE      CLEAR     79  72  78 CALM      29.85F
SALISBURY      CLEAR     76  74  93 S7        29.87S
OCEAN CITY     CLEAR     80  75  84 SW17G24   29.88S
WALLOPS ISLAND CLEAR     78  77  96 S12       29.90R
ACCOMACK*      CLEAR     81  81 100 SW9       29.90S
$$

NCZ012>017-030>032-040400-
NORTH CENTRAL AND EASTERN NORTH CAROLINA

CITY           SKY/WX    TMP DP  RH WIND       PRES   REMARKS
ROANOKE RAPIDS FAIR      77  72  83 S7        29.93S
RALEIGH        PTCLDY    82  68  62 SW14      29.95R
ELIZABETH CITY CLEAR     78  72  81 SW12      29.95R
AHOSKIE*       CLEAR     78  71  80 S7        29.93S
EDENTON*         N/A     77  71  81 S8        29.96S
CURRITUCK*     CLEAR     78  70  75 S6        29.96R
KILL DEVIL HLS CLEAR     78  73  83 SW6       29.96S
MANTEO         CLEAR     78  73  86 SW14      29.98S
CAPE HATTERAS  MOCLDY    79  74  84 SW15G21   30.00R
TARBORO*         N/A     79  72  78 S7        29.95S
GOLDSBORO      CLEAR     77  74  91 SE5       29.95R
WASHINGTON     CLEAR     75  72  89 S5        29.97S
GREENVILLE     CLEAR     77  73  88 S9        29.98S
NEW BERN       PTCLDY    77  73  87 S6        29.99R
WILMINGTON     CLOUDY    78  75  90 S5        29.98R
$$

VAZ048-040400-
ELSEWHERE

CITY           SKY/WX    TMP DP  RH WIND       PRES   REMARKS
HARRISBURG PA  MOCLDY    80  66  62 SW9       29.81R
BALTIMORE      PTCLDY    80  66  62 S7        29.82F
ANNAPOLIS      CLEAR     81  68  64 S5        29.83S
ANDREWS AFB    CLEAR     78  67  67 S10       29.84S
PHILADELPHIA   PTCLDY    81  67  62 SW7       29.83S
HENDERSON NC   CLEAR     79  67  67 S7        29.94R
GREENSBORO     CLEAR     80  65  59 S10       29.95R
ROCKY MOUNT    CLEAR     80  71  74 S8        29.95R
$$

VAZ100-040400-
MARINE

STATION/POSITION TIME  TEMP    WIND        PRES    WAVE   SWELL
                       AIR SEA DIR/SP/G            HT/PER HT/PER
                 (UTC) (F)     (DEG/KT/KT) (MB)    (FT/S) (FT/S)
BRANDYWINE LGT   0200   78 77  180/ 14/ 15 1011.1R
CAPE MAY NJ      0200   77 78  180/  9/ 14 1010.8R
LEWES DE         0200   80 73  220/  5/ 10 1011.1R
15NM E FENWICK I 0250   80 80  190/ 21/ 25 1011.6R   5/ 6   2/11
OCEAN-CITY-INLET 0200   78 78  210/ 15/ 17 1011.1R
WACHAPREAGUE VA  0200   81 85  210/ 12/ 15 1012.3R
THOMAS POINT MD  0200   83     200/ 13       N/A
GOOSES REEF MD   0300   83 82  210/ 12/ 14 1011.5F
COVE POINT MD    0200   82     220/ 10/ 11 1011.6R
SOLOMONS ISLAND  0200      84                N/A
BISHOPS HEAD MD  0200   83 85  200/ 12/ 14 1010.4R
PINEY POINT MD   0200          230/ 10/ 11   N/A
POTOMAC MD       0300   83 84  220/ 14/ 17 1010.3S   1/ 3
CAMBRIDGE MD     0200   81 84  210/  2/  5 1010.0R
LEWISETTA VA     0200   81 85  220/  8/  9 1011.2R
RAPPAHANNOCK LGT 0200          190/ 17/ 21 1012.7R
STINGRAY PT      0300   82 83  200/ 14/ 17 1012.3R   2/ 2
YORK RVR RNG VA  0200   82     210/ 12/ 13 1012.0R
YORKTOWN VA      0200   81 84  200/  7/  9 1012.3R
JAMESTOWN VA     0300   80 85  180/ 10/ 12   N/A
DOMINION TERM VA 0200   82     210/ 14/ 16 1012.3R
KIPTOPEKE VA     0200      83  200/ 14/ 15   N/A
CHES BAY BRIDGE  0200   81 80  170/ 12/ 14 1012.3R
CAPE HENRY VA    0200   80     190/  8/ 14   N/A
CHESAPEAKE LGHT  0200   80     210/ 17/ 19 1013.4R
WILLOUBY STN VA  0200   82     200/ 14/ 17 1013.6R
CAPE HENRY BUOY  0228      81                N/A     3/ 5   2/11
1ST LANDING BUOY 0300      81              1012.6R   2/ 3
CAPE CHARLES BUO 0226      77                N/A     3/11   2/11
OFFSHORE WE BUOY 0211      81                N/A     5/ 6   2/12
64NM E OF VA BCH 0250   80 81  210/ 21/ 25 1013.7R   6/ 6   2/11
DUCK PIER NC     0200   78 65  190/ 12/ 17 1013.4R
44100 DUCK FRF   0224      79                N/A     4/ 5   2/11
44056 DUCK FRF   0211      69                N/A     2/12   2/12
OREGON INLET NC  0200   79 81  190/ 20/ 22 1014.8R
HATTERAS NC      0200   79 79  180/  7/ 16 1015.1R


USA.gov is the U.S. government's official web portal to all federal, state and local government web resources and services.